| time (UTC) | temp C | wind direction | speed KPH | gust KPH | rain 1hr cm | rain 24hr cm | rain mn cm | humidity % | barometer mb |
| 20260508053026 | 8 | 145 | 0.0 | 1.6 | 0.00 | 0.10 | 0.00 | 90 | 1015.0 |
| 20260508052030 | 8 | 145 | 0.0 | 1.6 | 0.00 | 0.10 | 0.00 | 90 | 1014.9 |
| 20260508051028 | 8 | 145 | 0.0 | 1.6 | 0.00 | 0.10 | 0.00 | 90 | 1014.8 |
| 20260508050027 | 8 | 145 | 0.0 | 1.6 | 0.00 | 0.10 | 0.00 | 90 | 1014.8 |
| 20260508045025 | 7 | 145 | 0.0 | 1.6 | 0.00 | 0.10 | 0.00 | 90 | 1014.9 |
| 20260508044024 | 7 | 145 | 0.0 | 1.6 | 0.00 | 0.10 | 0.00 | 90 | 1014.8 |
| 20260508043029 | 7 | 145 | 1.6 | 3.2 | 0.00 | 0.10 | 0.00 | 90 | 1014.9 |
| 20260508042029 | 7 | 145 | 0.0 | 1.6 | 0.00 | 0.10 | 0.00 | 90 | 1014.8 |
| 20260508041029 | 7 | 145 | 0.0 | 1.6 | 0.00 | 0.10 | 0.03 | 90 | 1014.8 |
| 20260508040028 | 7 | 145 | 0.0 | 1.6 | 0.00 | 0.10 | 0.03 | 90 | 1014.6 |
| 20260508035034 | 7 | 145 | 0.0 | 4.8 | 0.00 | 0.10 | 0.03 | 90 | 1014.6 |
| 20260508034034 | 7 | 145 | 0.0 | 1.6 | 0.00 | 0.10 | 0.03 | 90 | 1014.6 |
| 20260508033034 | 7 | 145 | 0.0 | 0.0 | 0.00 | 0.10 | 0.03 | 89 | 1014.5 |
| 20260508032035 | 7 | 145 | 0.0 | 1.6 | 0.00 | 0.10 | 0.03 | 89 | 1014.5 |
| 20260508031038 | 7 | 145 | 0.0 | 3.2 | 0.00 | 0.10 | 0.03 | 89 | 1014.5 |
| 20260508030038 | 7 | 145 | 0.0 | 1.6 | 0.00 | 0.10 | 0.03 | 89 | 1014.5 |
| 20260508025038 | 7 | 145 | 0.0 | 4.8 | 0.00 | 0.10 | 0.03 | 89 | 1014.5 |
| 20260508024036 | 7 | 145 | 0.0 | 3.2 | 0.00 | 0.10 | 0.03 | 89 | 1014.5 |
| 20260508023037 | 7 | 145 | 1.6 | 4.8 | 0.00 | 0.10 | 0.03 | 89 | 1014.4 |
| 20260508022042 | 7 | 145 | 0.0 | 3.2 | 0.00 | 0.10 | 0.03 | 89 | 1014.4 |
| 20260508021042 | 7 | 145 | 0.0 | 1.6 | 0.00 | 0.10 | 0.03 | 89 | 1014.4 |
| 20260508020021 | 7 | 145 | 0.0 | 1.6 | 0.00 | 0.10 | 0.03 | 88 | 1014.5 |
| 20260508015040 | 7 | 145 | 0.0 | 0.0 | 0.00 | 0.10 | 0.03 | 88 | 1014.4 |
| 20260508013029 | 7 | 145 | 1.6 | 8.0 | 0.00 | 0.10 | 0.03 | 88 | 1014.3 |
| 20260508012029 | 7 | 145 | 0.0 | 3.2 | 0.00 | 0.10 | 0.03 | 88 | 1014.4 |
| 20260508011026 | 7 | 145 | 0.0 | 6.4 | 0.00 | 0.10 | 0.03 | 88 | 1014.5 |
| 20260508005042 | 7 | 145 | 0.0 | 1.6 | 0.00 | 0.10 | 0.03 | 88 | 1014.4 |
| 20260508004040 | 7 | 145 | 0.0 | 1.6 | 0.00 | 0.10 | 0.03 | 88 | 1014.4 |
| 20260508003041 | 7 | 145 | 0.0 | 4.8 | 0.00 | 0.10 | 0.03 | 87 | 1014.4 |
| 20260508002027 | 7 | 145 | 0.0 | 0.0 | 0.00 | 0.10 | 0.03 | 87 | 1014.3 |
| 20260508001025 | 8 | 145 | 0.0 | 1.6 | 0.00 | 0.10 | 0.03 | 87 | 1014.4 |
| 20260508000025 | 8 | 145 | 0.0 | 3.2 | 0.00 | 0.10 | 0.03 | 87 | 1014.4 |
| 20260507235027 | 8 | 145 | 0.0 | 4.8 | 0.00 | 0.10 | 0.03 | 87 | 1014.4 |
| 20260507234025 | 8 | 145 | 0.0 | 4.8 | 0.00 | 0.10 | 0.03 | 87 | 1014.3 |
| 20260507233030 | 8 | 145 | 0.0 | 3.2 | 0.00 | 0.10 | 0.03 | 87 | 1014.4 |
| 20260507232029 | 8 | 145 | 1.6 | 6.4 | 0.00 | 0.10 | 0.03 | 87 | 1014.3 |
| 20260507231029 | 8 | 145 | 0.0 | 3.2 | 0.00 | 0.20 | 0.03 | 87 | 1014.3 |
| 20260507230029 | 8 | 145 | 0.0 | 1.6 | 0.00 | 0.20 | 0.03 | 86 | 1014.2 |
| 20260507225033 | 8 | 145 | 0.0 | 1.6 | 0.00 | 0.20 | 0.03 | 86 | 1014.1 |
| 20260507223025 | 8 | 145 | 0.0 | 1.6 | 0.00 | 0.20 | 0.03 | 86 | 1014.1 |
| 20260507222025 | 8 | 145 | 0.0 | 3.2 | 0.00 | 0.20 | 0.03 | 86 | 1014.0 |
| 20260507221028 | 8 | 145 | 0.0 | 1.6 | 0.00 | 0.20 | 0.03 | 86 | 1014.0 |
| 20260507220028 | 8 | 145 | 0.0 | 1.6 | 0.00 | 0.20 | 0.03 | 85 | 1014.0 |
| 20260507215027 | 8 | 145 | 0.0 | 1.6 | 0.00 | 0.20 | 0.03 | 85 | 1014.1 |
| 20260507214028 | 8 | 145 | 0.0 | 1.6 | 0.00 | 0.20 | 0.03 | 85 | 1014.2 |
| 20260507213032 | 8 | 145 | 0.0 | 1.6 | 0.00 | 0.20 | 0.03 | 85 | 1013.9 |
| 20260507212033 | 8 | 145 | 0.0 | 3.2 | 0.00 | 0.20 | 0.03 | 85 | 1013.9 |
| 20260507211032 | 8 | 145 | 0.0 | 1.6 | 0.00 | 0.20 | 0.03 | 85 | 1013.8 |
| 20260507210033 | 8 | 145 | 0.0 | 1.6 | 0.00 | 0.20 | 0.03 | 85 | 1013.7 |
| 20260507205033 | 8 | 145 | 0.0 | 1.6 | 0.00 | 0.20 | 0.03 | 85 | 1013.6 |
| 20260507204034 | 8 | 145 | 0.0 | 3.2 | 0.00 | 0.20 | 0.03 | 84 | 1013.7 |
| 20260507203035 | 8 | 145 | 0.0 | 1.6 | 0.00 | 0.20 | 0.03 | 84 | 1013.6 |
| 20260507202035 | 8 | 145 | 0.0 | 3.2 | 0.00 | 0.20 | 0.03 | 84 | 1013.8 |
| 20260507201036 | 8 | 145 | 0.0 | 14.5 | 0.00 | 0.20 | 0.03 | 84 | 1013.7 |
| 20260507200040 | 8 | 145 | 0.0 | 1.6 | 0.00 | 0.20 | 0.03 | 84 | 1013.7 |
| 20260507195040 | 8 | 145 | 3.2 | 9.7 | 0.00 | 0.20 | 0.03 | 83 | 1013.6 |
| 20260507194041 | 8 | 145 | 0.0 | 3.2 | 0.00 | 0.20 | 0.03 | 83 | 1013.5 |
| 20260507193041 | 8 | 145 | 1.6 | 4.8 | 0.00 | 0.20 | 0.03 | 82 | 1013.4 |
| 20260507192025 | 8 | 145 | 0.0 | 3.2 | 0.00 | 0.20 | 0.03 | 82 | 1013.3 |
| 20260507191024 | 8 | 145 | 0.0 | 4.8 | 0.00 | 0.20 | 0.03 | 81 | 1013.2 |
| 20260507190024 | 8 | 145 | 0.0 | 6.4 | 0.00 | 0.20 | 0.03 | 81 | 1013.2 |
| 20260507185025 | 9 | 145 | 3.2 | 12.9 | 0.00 | 0.20 | 0.03 | 80 | 1013.0 |
| 20260507184028 | 9 | 145 | 0.0 | 6.4 | 0.00 | 0.20 | 0.03 | 80 | 1012.7 |
| 20260507183027 | 9 | 145 | 0.0 | 1.6 | 0.00 | 0.20 | 0.03 | 80 | 1012.5 |
| 20260507182026 | 9 | 145 | 0.0 | 3.2 | 0.00 | 0.20 | 0.03 | 80 | 1012.4 |
| 20260507181025 | 10 | 145 | 0.0 | 3.2 | 0.00 | 0.20 | 0.03 | 80 | 1012.3 |
| 20260507180026 | 10 | 145 | 1.6 | 8.0 | 0.00 | 0.20 | 0.03 | 79 | 1012.2 |
| 20260507175032 | 10 | 145 | 0.0 | 6.4 | 0.00 | 0.20 | 0.03 | 79 | 1012.2 |
| 20260507174030 | 10 | 145 | 0.0 | 4.8 | 0.00 | 0.20 | 0.03 | 79 | 1012.1 |
| 20260507173030 | 10 | 145 | 1.6 | 6.4 | 0.00 | 0.20 | 0.03 | 79 | 1012.0 |
| 20260507172031 | 10 | 145 | 0.0 | 3.2 | 0.00 | 0.20 | 0.03 | 79 | 1011.9 |
| 20260507171033 | 10 | 145 | 0.0 | 3.2 | 0.00 | 0.20 | 0.03 | 79 | 1011.7 |
| 20260507170034 | 10 | 145 | 0.0 | 9.7 | 0.00 | 0.20 | 0.03 | 78 | 1011.7 |
| 20260507165034 | 11 | 145 | 0.0 | 6.4 | 0.00 | 0.20 | 0.03 | 78 | 1011.4 |
| 20260507164028 | 11 | 145 | 1.6 | 4.8 | 0.00 | 0.20 | 0.03 | 78 | 1011.6 |
| 20260507163032 | 11 | 145 | 0.0 | 1.6 | 0.00 | 0.20 | 0.03 | 79 | 1011.5 |
| 20260507162034 | 11 | 145 | 1.6 | 6.4 | 0.00 | 0.20 | 0.03 | 78 | 1011.4 |
| 20260507161032 | 11 | 145 | 0.0 | 12.9 | 0.00 | 0.20 | 0.03 | 79 | 1011.4 |
| 20260507160031 | 11 | 145 | 1.6 | 6.4 | 0.00 | 0.20 | 0.03 | 79 | 1011.4 |
| 20260507155029 | 11 | 145 | 1.6 | 3.2 | 0.10 | 0.20 | 0.03 | 80 | 1011.4 |
| 20260507154032 | 11 | 145 | 0.0 | 6.4 | 0.10 | 0.20 | 0.03 | 80 | 1011.5 |
| 20260507153033 | 11 | 145 | 0.0 | 3.2 | 0.10 | 0.20 | 0.03 | 82 | 1011.6 |
| 20260507152032 | 11 | 145 | 0.0 | 4.8 | 0.10 | 0.20 | 0.03 | 84 | 1011.4 |
| 20260507151032 | 11 | 145 | 0.0 | 11.3 | 0.10 | 0.20 | 0.03 | 83 | 1011.4 |
| 20260507150036 | 11 | 145 | 0.0 | 4.8 | 0.10 | 0.20 | 0.03 | 83 | 1011.4 |
| 20260507145035 | 11 | 145 | 1.6 | 9.7 | 0.00 | 0.10 | 0.00 | 80 | 1011.7 |
| 20260507144033 | 11 | 145 | 0.0 | 3.2 | 0.00 | 0.10 | 0.00 | 79 | 1011.6 |
| 20260507143035 | 11 | 145 | 0.0 | 4.8 | 0.00 | 0.10 | 0.00 | 78 | 1011.7 |
| 20260507142039 | 11 | 145 | 1.6 | 8.0 | 0.00 | 0.10 | 0.00 | 77 | 1011.4 |
| 20260507141039 | 11 | 145 | 0.0 | 8.0 | 0.00 | 0.10 | 0.00 | 77 | 1011.5 |
| 20260507140035 | 11 | 145 | 0.0 | 3.2 | 0.00 | 0.10 | 0.00 | 77 | 1011.4 |
| 20260507135037 | 11 | 145 | 0.0 | 1.6 | 0.00 | 0.10 | 0.00 | 77 | 1011.3 |
| 20260507134036 | 11 | 145 | 1.6 | 12.9 | 0.00 | 0.10 | 0.00 | 78 | 1011.2 |
| 20260507133040 | 11 | 145 | 1.6 | 11.3 | 0.00 | 0.10 | 0.00 | 77 | 1011.3 |
| 20260507132040 | 11 | 145 | 1.6 | 6.4 | 0.00 | 0.10 | 0.00 | 77 | 1011.0 |
| 20260507131039 | 11 | 145 | 3.2 | 9.7 | 0.00 | 0.20 | 0.00 | 77 | 1011.1 |
| 20260507130040 | 11 | 145 | 1.6 | 8.0 | 0.00 | 0.20 | 0.00 | 77 | 1011.1 |
| 20260507125025 | 11 | 145 | 0.0 | 3.2 | 0.00 | 0.20 | 0.00 | 78 | 1011.1 |
| 20260507124024 | 11 | 145 | 1.6 | 11.3 | 0.00 | 0.20 | 0.00 | 78 | 1011.1 |
| 20260507123024 | 11 | 145 | 0.0 | 1.6 | 0.00 | 0.20 | 0.00 | 78 | 1010.9 |
| 20260507122023 | 11 | 145 | 0.0 | 11.3 | 0.00 | 0.20 | 0.00 | 80 | 1010.8 |
| 20260507121025 | 11 | 145 | 3.2 | 12.9 | 0.00 | 0.20 | 0.00 | 78 | 1010.7 |
| 20260507120027 | 11 | 145 | 4.8 | 9.7 | 0.00 | 0.20 | 0.00 | 77 | 1010.6 |
| 20260507115025 | 11 | 145 | 4.8 | 11.3 | 0.00 | 0.20 | 0.00 | 76 | 1010.5 |
| 20260507114025 | 11 | 145 | 0.0 | 8.0 | 0.00 | 0.20 | 0.00 | 78 | 1010.5 |
| 20260507113030 | 11 | 145 | 0.0 | 6.4 | 0.00 | 0.20 | 0.00 | 79 | 1010.4 |
| 20260507112031 | 11 | 145 | 0.0 | 3.2 | 0.00 | 0.20 | 0.00 | 81 | 1010.2 |
| 20260507111029 | 11 | 145 | 4.8 | 14.5 | 0.00 | 0.20 | 0.00 | 81 | 1010.3 |
| 20260507105026 | 11 | 145 | 0.0 | 8.0 | 0.00 | 0.20 | 0.00 | 82 | 1010.3 |
| 20260507104026 | 10 | 145 | 1.6 | 11.3 | 0.00 | 0.20 | 0.00 | 82 | 1010.2 |
| 20260507103028 | 10 | 145 | 0.0 | 11.3 | 0.00 | 0.20 | 0.00 | 83 | 1010.1 |
| 20260507101031 | 10 | 145 | 0.0 | 6.4 | 0.00 | 0.20 | 0.00 | 83 | 1009.9 |
| 20260507100036 | 10 | 145 | 0.0 | 1.6 | 0.00 | 0.20 | 0.00 | 84 | 1009.7 |
| 20260507095037 | 10 | 145 | 0.0 | 12.9 | 0.00 | 0.20 | 0.00 | 86 | 1009.8 |
| 20260507094036 | 10 | 145 | 0.0 | 6.4 | 0.00 | 0.20 | 0.00 | 86 | 1009.6 |
| 20260507093029 | 10 | 145 | 3.2 | 6.4 | 0.00 | 0.20 | 0.00 | 87 | 1009.7 |
| 20260507092027 | 10 | 145 | 1.6 | 8.0 | 0.00 | 0.20 | 0.00 | 89 | 1009.7 |
| 20260507091024 | 9 | 145 | 1.6 | 9.7 | 0.00 | 0.20 | 0.00 | 91 | 1009.5 |
| 20260507090024 | 8 | 145 | 6.4 | 12.9 | 0.00 | 0.20 | 0.00 | 93 | 1009.4 |
| 20260507085024 | 8 | 145 | 0.0 | 8.0 | 0.00 | 0.20 | 0.00 | 95 | 1009.2 |
| 20260507084026 | 8 | 145 | 3.2 | 14.5 | 0.00 | 0.20 | 0.00 | 96 | 1009.0 |
| 20260507083027 | 8 | 144 | 3.2 | 16.1 | 0.00 | 0.20 | 0.00 | 96 | 1008.6 |
| 20260507082026 | 8 | 145 | 0.0 | 6.4 | 0.00 | 0.20 | 0.00 | 97 | 1008.5 |
| 20260507081025 | 8 | 145 | 0.0 | 8.0 | 0.00 | 0.20 | 0.00 | 97 | 1008.5 |
| 20260507080025 | 7 | 145 | 4.8 | 11.3 | 0.00 | 0.20 | 0.00 | 97 | 1008.3 |
| 20260507075031 | 7 | 145 | 1.6 | 8.0 | 0.00 | 0.20 | 0.00 | 97 | 1008.4 |
| 20260507074030 | 7 | 145 | 1.6 | 8.0 | 0.00 | 0.20 | 0.00 | 97 | 1008.2 |
| 20260507073031 | 7 | 145 | 0.0 | 11.3 | 0.00 | 0.20 | 0.00 | 97 | 1008.1 |
| 20260507072032 | 7 | 145 | 1.6 | 11.3 | 0.00 | 0.20 | 0.00 | 97 | 1007.9 |
| 20260507071037 | 7 | 145 | 3.2 | 9.7 | 0.00 | 0.20 | 0.00 | 97 | 1008.0 |
| 20260507070036 | 7 | 145 | 3.2 | 12.9 | 0.00 | 0.20 | 0.00 | 97 | 1008.0 |
| 20260507065038 | 7 | 145 | 3.2 | 11.3 | 0.00 | 0.20 | 0.00 | 97 | 1008.0 |
| 20260507064039 | 7 | 145 | 0.0 | 14.5 | 0.00 | 0.20 | 0.00 | 97 | 1007.9 |
| 20260507063040 | 7 | 146 | 1.6 | 11.3 | 0.00 | 0.20 | 0.00 | 97 | 1007.9 |
| 20260507062040 | 7 | 146 | 0.0 | 9.7 | 0.00 | 0.20 | 0.00 | 97 | 1007.8 |
| 20260507061038 | 7 | 146 | 1.6 | 9.7 | 0.00 | 0.20 | 0.00 | 97 | 1007.8 |
| 20260507060038 | 7 | 146 | 0.0 | 6.4 | 0.00 | 0.20 | 0.00 | 97 | 1007.6 |
| 20260507055037 | 7 | 146 | 0.0 | 3.2 | 0.00 | 0.20 | 0.00 | 97 | 1007.4 |
| 20260507054040 | 7 | 146 | 0.0 | 8.0 | 0.00 | 0.20 | 0.00 | 97 | 1007.3 |